Terug naar catalogus

INTELSAT 29E DEB

LostMEO
NORAD 62723·DEBRIS· XX

Gelanceerd Jan 27, 2016 vanaf Guiana Space Centre

Loading…

Volgende Passages (komende 24 uur)

TLE

VerouderdSource: Space-Track

Epoch: Mar 27, 2025, 12:33 UTC

1 62723U 16004E   25086.52352323  .00000010  00000-0  00000-0 0  9998
2 62723   5.4043  75.8258 0623060 307.4539  47.2101  1.00540659  8060

Volg INTELSAT 29E DEB in realtime met AllMySat

Download on the App Store